Location: *
(45.4590°N, 16.3650°E)
Time: 10:26:34
(UTC+00:00)

CZ-2D R/B - Pass Details

Date: 17 January 2020
Orbit: 523 x 537 km, 97.4° (Epoch: 16 February)

Event Time Altitude Azimuth Distance (km) Brightness Sun altitude
Rises 16:50:13 0° 140° (SE) 2,648 6.6 -12.2°
Reaches altitude 10° 16:52:30 10° 129° (SE) 1,766 5.6 -12.6°
Maximum altitude 16:55:47 28° 69° (ENE) 1,003 4.1 -13.1°
Drops below altitude 10° 16:59:07 10° 9° (N) 1,785 5.7 -13.7°
Sets 17:01:26 0° 358° (N) 2,683 6.7 -14.1°
